Weather History for KCLE - March, 2014

Change the Weather History Date:

Tuesday, March 11, 2014

  Actual Average Record
Temperature  
Mean Temperature 52 °F 36 °F  
Max Temperature 63 °F 45 °F 73 °F (1977)
Min Temperature 40 °F 29 °F -3 °F (1960)
Degree Days  
Heating Degree Days 13 28  
Month to date heating degree days 396 329  
Since 1 July heating degree days 5077 4546  
Cooling Degree Days 0 0  
Month to date cooling degree days 0 0  
Year to date cooling degree days 0 0  
Growing Degree Days 1 (Base 50)    
Moisture  
Dew Point 38 °F    
Average Humidity 66    
Maximum Humidity 82    
Minimum Humidity 49    
Precipitation  
Precipitation 0.01 in 0.09 in 0.92 in (2013)
Month to date precipitation 0.26 0.94  
Year to date precipitation 5.29 6.00  
Snow  
Snow 0.00 in 0.50 in - ()
Month to date snowfall 3.4 5.3  
Since 1 July snowfall 73.1 57.5  
Snow Depth 0.00 in    
Sea Level Pressure  
Sea Level Pressure 29.70 in    
Wind  
Wind Speed 7 mph (WSW)    
Max Wind Speed 15 mph    
Max Gust Speed 18 mph    
Visibility 7 miles    
Events Rain    
T = Trace of Precipitation, MM = Missing Value Source: NWS Daily Summary

Daily Weather History Graph

Daily Weather History Graph

Search for Another Location

Airport or City:

Trip Planner

Search our weather history database for the weather conditions in past years. The results will help you decide how hot, cold, wet, or windy it might be!

Date:

Astronomy

Mar. 11, 2014 Rise Set
Actual Time 7:45 AM EDT 7:29 PM EDT
Civil Twilight 7:18 AM EDT 7:57 PM EDT
Nautical Twilight 6:46 AM EDT 8:29 PM EDT
Astronomical Twilight 6:13 AM EDT 9:01 PM EDT
Moon 3:02 PM EDT (3/11) 4:41 AM EDT (3/11)
Length of Visible Light 12h 38m
Length of Day
11h 43m
Waxing Gibbous, 78% of the Moon is Illuminated
Mar 11
Waxing Gibbous
Mar 16
Full
Mar 23
Last Quarter
Mar 30
New
Apr 7
First Quarter

Hourly Weather History & Observations

Time (EDT) Temp. Windchill Dew Point Humidity Pressure Visibility Wind Dir Wind Speed Gust Speed Precip Events Conditions
12:51 AM 46.9 °F - 37.9 °F 71% 29.69 in 9.0 mi WSW 9.2 mph - N/A   Mostly Cloudy
1:51 AM 46.9 °F - 37.9 °F 71% 29.68 in 9.0 mi SW 9.2 mph - N/A   Mostly Cloudy
2:51 AM 45.0 °F 40.6 °F 37.0 °F 74% 29.70 in 8.0 mi SW 8.1 mph - N/A   Mostly Cloudy
3:51 AM 44.1 °F 40.1 °F 37.0 °F 76% 29.70 in 8.0 mi SW 6.9 mph - N/A   Mostly Cloudy
4:51 AM 41.0 °F 38.0 °F 36.0 °F 82% 29.70 in 7.0 mi SW 4.6 mph - N/A   Mostly Cloudy
5:51 AM 43.0 °F 40.3 °F 37.0 °F 80% 29.70 in 7.0 mi SSW 4.6 mph - N/A   Mostly Cloudy
6:51 AM 43.0 °F 38.2 °F 37.0 °F 80% 29.69 in 6.0 mi SSW 8.1 mph - N/A   Mostly Cloudy
7:51 AM 42.1 °F 38.4 °F 37.0 °F 82% 29.70 in 5.0 mi SSW 5.8 mph - N/A   Mostly Cloudy
8:51 AM 43.0 °F 38.8 °F 37.0 °F 80% 29.72 in 5.0 mi SSW 6.9 mph - N/A   Haze
9:51 AM 46.9 °F - 39.9 °F 77% 29.73 in 6.0 mi SW 6.9 mph - N/A   Haze
10:51 AM 50.0 °F - 39.9 °F 68% 29.72 in 7.0 mi SW 6.9 mph - N/A   Mostly Cloudy
11:51 AM 55.0 °F - 42.1 °F 62% 29.71 in 8.0 mi WSW 10.4 mph - N/A   Mostly Cloudy
12:51 PM 55.9 °F - 39.9 °F 55% 29.69 in 10.0 mi SSW 8.1 mph - N/A   Mostly Cloudy
1:51 PM 57.9 °F - 41.0 °F 53% 29.69 in 10.0 mi West 8.1 mph - N/A   Overcast
2:51 PM 61.0 °F - 41.0 °F 48% 29.67 in 10.0 mi West 5.8 mph - N/A   Mostly Cloudy
3:51 PM 54.0 °F - 39.0 °F 57% 29.68 in 8.0 mi North 12.7 mph - N/A   Mostly Cloudy
4:03 PM 51.1 °F - 39.0 °F 63% 29.68 in 6.0 mi North 15.0 mph - N/A   Haze
4:51 PM 48.0 °F - 37.9 °F 68% 29.69 in 5.0 mi NNE 8.1 mph - N/A   Haze
5:51 PM 46.9 °F - 36.0 °F 66% 29.70 in 5.0 mi North 4.6 mph - N/A   Haze
6:51 PM 46.9 °F - 36.0 °F 66% 29.70 in 5.0 mi Calm Calm - N/A   Haze
7:51 PM 46.9 °F - 36.0 °F 66% 29.72 in 7.0 mi NNE 4.6 mph - N/A   Overcast
8:51 PM 46.0 °F 42.5 °F 35.1 °F 66% 29.75 in 8.0 mi North 6.9 mph - 0.00 in Rain Light Rain
9:51 PM 44.1 °F 38.1 °F 36.0 °F 73% 29.71 in 6.0 mi ENE 11.5 mph - 0.01 in   Haze
10:51 PM 45.0 °F 42.6 °F 37.0 °F 74% 29.72 in 7.0 mi NE 4.6 mph - N/A   Overcast
11:51 PM 43.0 °F 37.2 °F 36.0 °F 76% 29.72 in 6.0 mi ENE 10.4 mph - N/A   Haze